This is the latest recevied weather packets stored in our database for station/object KD2RHT-13. If no packets are shown the sender has not sent any weather packets the latest 10 day(s).
| Time | Temp. | Humidity | Pressure | Rain* | Wind** | Luminosity | Snow |
|---|---|---|---|---|---|---|---|
| 1777650154 | 12.22° C | 57% | 1014.5 hPa | 0 mm | - | 892 W/m² | - |
| 1777649852 | 12.22° C | 51% | 1014.5 hPa | 0 mm | - | 877 W/m² | - |
| 1777649549 | 11.67° C | 54% | 1014.9 hPa | 0 mm | - | 878 W/m² | - |
| 1777649245 | 11.67° C | 57% | 1014.9 hPa | 0 mm | - | 855 W/m² | - |
| 1777648942 | 11.67° C | 55% | 1014.5 hPa | 0 mm | - | 868 W/m² | - |
| 1777648639 | 11.67° C | 57% | 1014.9 hPa | 0 mm | - | 861 W/m² | - |
| 1777648335 | 12.22° C | 53% | 1014.9 hPa | 0 mm | - | 838 W/m² | - |
| 1777648032 | 11.11° C | 61% | 1014.9 hPa | 0 mm | - | 819 W/m² | - |
| 1777647728 | 11.67° C | 55% | 1014.9 hPa | 0 mm | - | 802 W/m² | - |
| 1777647425 | 11.67° C | 54% | 1015.2 hPa | 0 mm | - | 809 W/m² | - |
| 1777647123 | 11.11° C | 60% | 1014.9 hPa | 0 mm | - | 791 W/m² | - |
| 1777646210 | 11.11° C | 56% | 1015.2 hPa | 0 mm | - | 775 W/m² | - |
| 1777645908 | 11.11° C | 63% | 1014.9 hPa | 0 mm | - | 776 W/m² | - |
| 1777645604 | 10.56° C | 63% | 1014.9 hPa | 0 mm | - | 757 W/m² | - |
| 1777645300 | 10.56° C | 60% | 1014.9 hPa | 0 mm | - | 721 W/m² | - |
| 1777644996 | 10.56° C | 60% | 1015.2 hPa | 0 mm | - | 731 W/m² | - |
| 1777644694 | 10.56° C | 64% | 1014.9 hPa | 0 mm | - | 712 W/m² | - |
| 1777644390 | 10° C | 63% | 1015.2 hPa | 0 mm | - | 684 W/m² | - |
| 1777644087 | 9.44° C | 62% | 1015.2 hPa | 0 mm | - | 663 W/m² | - |
| 1777643784 | 9.44° C | 65% | 1015.2 hPa | 0 mm | - | 642 W/m² | - |
| 1777643481 | 10° C | 62% | 1014.9 hPa | 0 mm | - | 642 W/m² | - |
| 1777642874 | 10° C | 65% | 1015.2 hPa | 0 mm | - | 629 W/m² | - |
| 1777642571 | 8.89° C | 68% | 1015.6 hPa | 0 mm | - | 602 W/m² | - |
| 1777642268 | 8.89° C | 68% | 1015.2 hPa | 0 mm | - | 576 W/m² | - |
| 1777641965 | 9.44° C | 69% | 1015.2 hPa | 0 mm | - | 543 W/m² | - |
* Rain latest hour (hover to see other rain measurements)
** Current wind speed in m/s (hover to see current wind gust speed)